Stations météo

Publicité
Bourges, France (7255): Température de l'air & dewpoint: 10.07.2019 00:00:00 - 16.07.2019 00:00:00 (CEST)Bourges, France (7255): Température de l'air 5cm: 10.07.2019 00:00:00 - 16.07.2019 00:00:00 (CEST)Bourges, France (7255): Température de l'air -20cm & Température de l'air -100cm: 10.07.2019 00:00:00 - 16.07.2019 00:00:00 (CEST)Bourges, France (7255): Vitesse du vent & gusts: 10.07.2019 00:00:00 - 16.07.2019 00:00:00 (CEST)Bourges, France (7255): Direction du vent: 10.07.2019 00:00:00 - 16.07.2019 00:00:00 (CEST)Bourges, France (7255): reduced air pressure: 10.07.2019 00:00:00 - 16.07.2019 00:00:00 (CEST)Bourges, France (7255): visibility: 10.07.2019 00:00:00 - 16.07.2019 00:00:00 (CEST)Bourges, France (7255): Ensoleillement: 10.07.2019 00:00:00 - 16.07.2019 00:00:00 (CEST)Bourges, France (7255): Quantités de précipitations: 10.07.2019 00:00:00 - 16.07.2019 00:00:00 (CEST)
Date & Time tt [°C] td [°C] tt 5cm [°C] tt -20cm [°C] tt -100cm [°C] ff [km/h] ff [knt] fx [km/h] fx [knt] dd ppp [hPa] vv [km] sd [min] rr [mm]
16.07.2019 00:00:00 - - - - - - - - - - - - - -
15.07.2019 23:00:00 20,3 9,8 18,1 27,3 21,3 6 3 11 6 NNE 1017,9 20 0 0,0
15.07.2019 22:00:00 22,2 9,7 20,5 27,6 21,3 7 4 18 10 NNE 1017,5 20 16 0,0
15.07.2019 21:00:00 24,0 9,6 23,4 27,7 21,3 13 7 23 12 NNE 1017,1 20 60 0,0
15.07.2019 20:00:00 25,3 9,6 28,8 27,6 21,3 10 6 27 15 NE 1016,7 20 60 0,0
15.07.2019 19:00:00 25,1 9,0 28,6 27,3 21,3 11 6 32 17 NNE 1016,6 20 53 0,0
15.07.2019 18:00:00 25,6 9,4 28,4 26,9 21,3 16 9 31 17 NNE 1016,7 20 60 0,0
15.07.2019 17:00:00 24,7 9,0 28,9 26,3 21,3 15 8 36 20 N 1016,8 20 49 0,0
15.07.2019 16:00:00 24,8 9,9 30,0 25,6 21,3 16 9 33 18 NNE 1017,0 20 57 0,0
15.07.2019 15:00:00 25,1 10,2 32,2 24,9 21,3 18 10 44 24 NNE 1017,0 20 60 0,0
15.07.2019 14:00:00 23,6 9,9 30,5 24,3 21,3 15 8 34 18 NNE 1017,4 20 60 0,0
15.07.2019 13:00:00 22,2 9,4 28,0 23,8 21,3 16 9 29 16 NNE 1017,8 20 57 0,0
15.07.2019 12:00:00 21,3 9,5 26,1 23,4 21,3 15 8 35 19 NNE 1018,0 20 60 0,0
15.07.2019 11:00:00 20,0 9,3 24,6 23,2 21,3 18 10 32 18 NE 1018,2 20 60 0,0
15.07.2019 10:00:00 18,5 9,6 22,8 23,2 21,3 18 10 29 16 NE 1018,4 20 60 0,0
15.07.2019 09:00:00 16,6 10,9 18,2 23,4 21,3 14 8 24 13 NE 1018,6 20 60 0,0
15.07.2019 08:00:00 14,6 10,6 14,1 23,7 21,3 14 8 23 12 NNE 1018,4 20 60 0,0
15.07.2019 07:00:00 12,7 9,7 11,5 24,1 21,3 8 5 16 9 N 1018,3 20 24 0,0
15.07.2019 06:00:00 12,8 9,6 11,6 24,4 21,3 7 4 14 8 N 1018,1 20 0 0,0
15.07.2019 05:00:00 13,6 9,6 11,8 24,8 21,3 9 5 14 8 NNE 1017,7 20 0 0,0
15.07.2019 04:00:00 13,3 9,4 12,3 25,2 21,3 7 4 14 7 N 1018,0 20 0 0,0
15.07.2019 03:00:00 14,4 9,4 13,0 25,6 21,3 7 4 14 8 NNW 1018,1 20 0 0,0
15.07.2019 02:00:00 16,1 9,7 14,9 25,9 21,3 9 5 18 10 N 1017,9 20 0 0,0
15.07.2019 01:00:00 17,0 9,7 15,9 26,3 21,3 9 5 20 11 NNE 1018,2 20 0 0,0
15.07.2019 00:00:00 17,9 9,8 16,9 26,7 21,3 10 5 24 13 NNE 1018,0 20 0 0,0
14.07.2019 23:00:00 18,8 10,1 18,0 27,1 21,3 13 7 30 16 NNE 1017,7 20 0 0,0
14.07.2019 22:00:00 20,1 10,2 19,3 27,4 21,3 13 7 31 17 NNE 1016,9 20 16 0,0
14.07.2019 21:00:00 21,8 10,0 21,5 27,5 21,3 17 9 39 21 NNE 1016,5 20 60 0,0
14.07.2019 20:00:00 23,4 9,8 26,1 27,5 21,3 19 10 45 25 NNE 1016,1 20 60 0,0
14.07.2019 19:00:00 23,8 10,1 24,4 27,4 21,3 18 10 40 22 NNE 1015,7 20 39 0,0
14.07.2019 18:00:00 24,5 10,0 26,3 27,0 21,2 16 9 39 21 NNE 1015,5 20 43 0,0
14.07.2019 17:00:00 25,0 10,1 27,3 26,6 21,2 19 10 39 21 NNE 1015,6 20 51 0,0
14.07.2019 16:00:00 25,0 10,5 28,1 26,1 21,2 20 11 44 24 NNE 1015,9 20 46 0,0
14.07.2019 15:00:00 24,0 10,6 28,3 25,6 21,2 17 9 37 20 NNE 1016,2 20 27 0,0
14.07.2019 14:00:00 23,8 10,5 28,9 25,1 21,3 18 10 37 20 NNE 1016,5 20 48 0,0
14.07.2019 13:00:00 23,4 11,1 28,5 24,6 21,2 18 10 33 18 NE 1016,6 20 55 0,0
14.07.2019 12:00:00 22,7 11,4 27,6 24,2 21,2 16 9 31 17 NE 1016,8 20 52 0,0
14.07.2019 11:00:00 20,7 11,9 24,8 24,0 21,2 16 8 25 13 NNE 1017,3 20 50 0,0
14.07.2019 10:00:00 20,4 13,1 24,2 24,0 21,2 11 6 24 13 NE 1017,3 20 58 0,0
14.07.2019 09:00:00 18,8 12,8 22,0 24,2 21,2 10 5 19 11 NE 1017,6 20 60 0,0
14.07.2019 08:00:00 17,1 12,2 17,3 24,4 21,2 9 5 16 8 NNE 1017,7 20 60 0,0
14.07.2019 07:00:00 15,3 11,3 14,5 24,8 21,2 3 2 16 9 N 1018,0 20 25 0,0
14.07.2019 06:00:00 16,1 11,0 15,1 25,1 21,2 10 5 26 14 NE 1017,9 20 0 0,0
14.07.2019 05:00:00 16,8 11,3 16,0 25,4 21,2 12 6 22 12 NE 1017,9 20 0 0,0
14.07.2019 04:00:00 17,4 11,7 16,7 25,8 21,2 14 8 28 15 NE 1018,1 20 0 0,0
14.07.2019 03:00:00 18,2 11,5 17,4 26,1 21,2 13 7 26 14 NE 1018,6 20 0 0,0
14.07.2019 02:00:00 19,4 11,2 18,4 26,5 21,2 14 8 30 16 NE 1018,4 20 0 0,0
14.07.2019 01:00:00 19,8 10,8 18,6 26,9 21,2 9 5 25 13 NE 1018,3 20 0 0,0
14.07.2019 00:00:00 20,9 10,4 19,9 27,2 21,2 13 7 23 12 NE 1017,9 20 0 0,0
13.07.2019 23:00:00 22,1 10,3 20,8 27,6 21,2 12 7 26 14 NE 1017,6 20 0 0,0
13.07.2019 22:00:00 23,5 9,5 22,3 27,9 21,2 11 6 21 11 NE 1017,4 20 17 0,0
13.07.2019 21:00:00 24,9 9,6 24,3 28,0 21,2 13 7 30 16 NE 1017,1 20 60 0,0
13.07.2019 20:00:00 26,4 7,9 29,5 27,8 21,2 16 9 25 13 NE 1017,1 20 60 0,0
13.07.2019 19:00:00 26,8 8,7 31,0 27,5 21,2 16 9 31 17 ENE 1017,1 20 60 0,0
13.07.2019 18:00:00 27,4 8,8 33,6 27,1 21,2 9 5 29 16 NE 1017,2 20 60 0,0
13.07.2019 17:00:00 27,5 10,2 29,2 26,6 21,2 14 8 29 15 N 1017,7 20 25 0,0
13.07.2019 16:00:00 27,1 8,5 30,7 26,0 21,2 12 6 29 16 N 1017,9 20 53 0,0
13.07.2019 15:00:00 26,8 9,2 29,0 25,5 21,2 11 6 28 15 N 1018,3 20 38 0,0
13.07.2019 14:00:00 25,1 9,0 27,6 25,0 21,2 11 6 27 15 N 1018,9 20 23 0,0
13.07.2019 13:00:00 25,2 9,9 27,7 24,6 21,2 11 6 24 13 NE 1019,2 20 35 0,0
13.07.2019 12:00:00 24,6 10,8 26,4 24,1 21,2 9 5 20 11 NNE 1019,2 20 35 0,0
13.07.2019 11:00:00 23,7 11,4 28,9 23,9 21,2 6 3 21 11 NNE 1019,3 20 60 0,0
13.07.2019 10:00:00 22,5 12,1 25,8 23,8 21,2 11 6 20 11 E 1019,4 20 60 0,0
13.07.2019 09:00:00 20,9 12,6 24,6 23,9 21,2 11 6 19 10 ENE 1019,4 20 60 0,0
13.07.2019 08:00:00 18,1 13,0 15,8 24,2 21,2 4 2 10 5 N 1019,2 20 50 0,0
13.07.2019 07:00:00 15,0 11,8 13,7 24,5 21,2 9 5 11 6 NNW 1019,4 20 21 0,0
13.07.2019 06:00:00 15,1 11,7 12,3 24,9 21,2 5 3 8 4 WNW 1018,9 20 0 0,0
13.07.2019 05:00:00 16,0 12,0 14,6 25,2 21,2 4 2 12 6 NW 1018,6 20 0 0,0
13.07.2019 04:00:00 16,9 12,0 15,0 25,6 21,2 8 4 12 6 NNW 1018,5 20 0 0,0
13.07.2019 03:00:00 17,7 11,7 16,2 25,9 21,2 5 3 13 7 WNW 1018,2 20 0 0,0
13.07.2019 02:00:00 18,9 11,9 17,1 26,3 21,2 7 4 11 6 N 1018,0 20 0 0,0
13.07.2019 01:00:00 19,7 12,0 18,1 26,7 21,2 8 4 16 8 NNW 1018,0 20 0 0,0
13.07.2019 00:00:00 20,8 12,2 18,8 27,0 21,1 4 2 13 7 NW 1017,5 20 0 0,0
12.07.2019 23:00:00 21,8 12,1 20,0 27,4 21,2 4 2 14 8 NNW 1016,9 20 0 0,0
12.07.2019 22:00:00 23,3 12,3 21,9 27,5 21,2 8 5 22 12 NNW 1016,2 20 6 0,0
12.07.2019 21:00:00 25,7 12,9 25,1 27,7 21,2 11 6 31 17 NW 1015,4 20 60 0,0
12.07.2019 20:00:00 26,5 13,6 26,8 27,6 21,2 15 8 37 20 NW 1015,2 20 27 0,0
12.07.2019 19:00:00 26,7 13,1 27,4 27,5 21,2 18 10 30 16 NW 1014,9 20 20 0,0
12.07.2019 18:00:00 27,5 13,4 29,0 27,2 21,1 13 7 29 16 NW 1014,7 20 32 0,0
12.07.2019 17:00:00 26,4 13,5 29,4 26,9 21,2 13 7 30 16 NNW 1015,1 20 27 0,0
12.07.2019 16:00:00 26,5 13,3 29,6 26,4 21,1 11 6 30 16 WNW 1015,4 20 6 0,0
12.07.2019 15:00:00 26,9 12,9 30,6 25,9 21,2 16 8 34 18 W 1015,6 20 20 0,0
12.07.2019 14:00:00 26,5 12,5 31,2 25,2 21,1 10 6 37 20 WNW 1015,5 20 43 0,0
12.07.2019 13:00:00 26,0 12,1 31,2 24,6 21,1 13 7 26 14 W 1015,8 20 52 0,0
12.07.2019 12:00:00 25,1 12,7 30,1 24,2 21,1 10 5 18 10 WNW 1016,0 20 51 0,0
12.07.2019 11:00:00 23,5 12,2 25,9 24,0 21,1 7 4 15 8 W 1016,2 20 36 0,0
12.07.2019 10:00:00 21,7 12,3 25,4 23,9 21,1 4 2 13 7 WNW 1016,5 20 44 0,0
12.07.2019 09:00:00 19,7 11,5 20,0 24,0 21,1 9 5 14 8 NW 1016,4 20 54 0,0
12.07.2019 08:00:00 17,6 10,0 16,2 24,2 21,1 6 4 10 5 W 1016,1 20 39 0,0
12.07.2019 07:00:00 16,0 9,4 15,3 24,6 21,1 6 3 12 6 W 1015,8 20 3 0,0
12.07.2019 06:00:00 16,4 9,3 13,8 24,9 21,1 7 4 12 7 W 1015,3 20 0 0,0
12.07.2019 05:00:00 17,2 8,9 16,1 25,2 21,1 5 3 10 6 W 1014,9 20 0 0,0
12.07.2019 04:00:00 18,1 9,2 17,1 25,6 21,1 6 3 11 6 W 1014,7 20 0 0,0
12.07.2019 03:00:00 19,1 9,3 17,9 25,9 21,1 6 3 16 8 WNW 1014,6 20 0 0,0
12.07.2019 02:00:00 20,5 10,3 19,2 26,2 21,1 9 5 17 9 W 1014,3 20 0 0,0
12.07.2019 01:00:00 22,4 10,8 20,8 26,5 21,1 11 6 19 10 W 1014,1 20 0 0,0
12.07.2019 00:00:00 23,5 11,2 22,1 26,7 21,1 8 5 13 7 WSW 1014,0 20 0 0,0
11.07.2019 23:00:00 25,5 10,9 23,9 26,9 21,1 6 3 13 7 W 1013,7 20 0 0,0
11.07.2019 22:00:00 26,5 11,4 25,5 27,1 21,1 6 3 11 6 W 1013,2 20 0 0,0
11.07.2019 21:00:00 27,1 10,7 26,8 27,2 21,1 6 3 16 9 W 1012,9 20 0 0,0
11.07.2019 20:00:00 28,0 10,2 27,9 27,2 21,1 8 4 26 14 W 1012,9 20 1 0,0
11.07.2019 19:00:00 28,7 10,8 29,6 27,2 21,1 12 7 26 14 NW 1012,8 20 7 0,0
11.07.2019 18:00:00 27,6 11,6 27,2 27,2 21,1 8 4 24 13 WNW 1013,0 20 0 0,0
11.07.2019 17:00:00 28,1 11,2 28,7 26,8 21,1 10 5 29 16 W 1013,0 20 0 0,0
11.07.2019 16:00:00 28,8 10,0 30,0 26,2 21,1 13 7 28 15 WSW 1012,9 20 18 0,0
11.07.2019 15:00:00 29,4 10,5 32,2 25,4 21,0 12 6 24 13 SW 1012,9 20 41 0,0
11.07.2019 14:00:00 28,9 10,5 34,3 24,8 21,1 11 6 22 12 SW 1013,3 20 58 0,0
11.07.2019 13:00:00 27,6 9,9 32,4 24,4 21,0 6 3 15 8 W 1014,1 20 55 0,0
11.07.2019 12:00:00 25,7 11,5 25,7 24,2 21,0 3 2 12 7 WSW 1014,6 20 19 0,0
11.07.2019 11:00:00 21,7 12,0 22,1 24,3 21,1 6 3 10 6 SE 1014,6 20 0 0,0
11.07.2019 10:00:00 20,2 11,4 21,4 24,3 21,0 4 2 7 4 SSE 1015,3 20 0 0,0
11.07.2019 09:00:00 19,4 10,9 18,7 24,5 21,0 6 3 8 4 ESE 1015,0 20 0 0,0
11.07.2019 08:00:00 17,8 11,1 17,3 24,8 21,0 6 3 9 5 ESE 1014,5 20 0 0,0
11.07.2019 07:00:00 16,8 11,7 16,2 25,0 21,0 8 4 10 5 ESE 1014,5 20 0 0,0
11.07.2019 06:00:00 16,4 11,1 15,4 25,3 21,0 5 3 6 4 E 1014,6 20 0 0,0
11.07.2019 05:00:00 17,1 12,0 13,6 25,7 21,0 3 2 5 3 ESE 1014,9 20 0 0,0
11.07.2019 04:00:00 17,1 11,4 15,4 26,1 21,0 4 2 6 4 E 1015,2 20 0 0,0
11.07.2019 03:00:00 17,8 11,6 16,3 26,5 21,0 5 3 8 4 E 1015,5 20 0 0,0
11.07.2019 02:00:00 18,6 11,7 17,6 26,9 21,0 5 3 10 5 E 1015,7 20 0 0,0
11.07.2019 01:00:00 20,0 10,7 16,3 27,3 21,0 6 3 8 5 E 1015,8 20 0 0,0
11.07.2019 00:00:00 21,4 10,8 17,7 27,7 21,0 3 2 9 5 NE 1016,1 20 0 0,0
10.07.2019 23:00:00 23,6 9,9 21,8 28,1 21,0 5 3 14 7 NE 1016,1 20 0 0,0
10.07.2019 22:00:00 24,7 9,4 22,5 28,3 21,0 5 3 11 6 ENE 1016,0 20 19 0,0
10.07.2019 21:00:00 26,7 9,1 26,5 28,4 21,0 8 4 15 8 ENE 1015,7 20 31 0,0
10.07.2019 20:00:00 27,3 9,2 28,8 28,4 21,0 9 5 16 9 ENE 1016,2 20 25 0,0
10.07.2019 19:00:00 28,4 9,1 32,3 28,0 21,0 6 4 26 14 NNE 1016,2 20 60 0,0
10.07.2019 18:00:00 28,4 9,1 35,5 27,5 21,0 8 4 22 12 NE 1016,6 20 60 0,0
10.07.2019 17:00:00 28,3 9,1 35,5 26,9 21,0 8 4 29 16 NW 1016,9 20 60 0,0
10.07.2019 16:00:00 27,6 9,4 34,2 26,1 21,0 11 6 25 13 NNE 1017,4 20 60 0,0
10.07.2019 15:00:00 27,3 9,2 33,4 25,4 21,0 10 5 28 15 ENE 1017,9 20 60 0,0
10.07.2019 14:00:00 26,4 8,8 32,1 24,6 21,0 11 6 29 16 N 1018,4 20 60 0,0
10.07.2019 13:00:00 25,0 7,6 31,4 24,0 21,0 12 7 24 13 N 1018,8 20 60 0,0
10.07.2019 12:00:00 24,4 7,1 30,0 23,5 21,0 11 6 22 12 E 1019,0 20 60 0,0
10.07.2019 11:00:00 22,6 6,4 27,8 23,3 21,0 10 5 21 12 NE 1019,1 20 60 0,0
10.07.2019 10:00:00 21,5 7,0 24,7 23,2 21,0 14 7 21 12 E 1019,4 20 60 0,0
10.07.2019 09:00:00 19,5 7,2 21,3 23,3 21,0 10 5 19 10 E 1019,4 20 60 0,0
10.07.2019 08:00:00 17,8 6,9 17,6 23,6 21,0 10 6 15 8 E 1019,3 20 60 0,0
10.07.2019 07:00:00 15,5 6,8 14,3 23,9 21,0 8 4 15 8 ENE 1019,3 20 28 0,0
10.07.2019 06:00:00 15,9 6,6 14,8 24,3 21,0 10 6 22 12 ENE 1019,1 20 0 0,0
10.07.2019 05:00:00 16,6 6,4 14,4 24,6 21,0 14 7 23 12 NE 1018,8 20 0 0,0
10.07.2019 04:00:00 16,3 6,7 14,5 25,0 21,0 9 5 17 9 NE 1018,7 20 0 0,0
10.07.2019 03:00:00 16,6 6,4 15,4 25,4 21,0 10 6 18 10 NNE 1018,9 20 0 0,0
10.07.2019 02:00:00 17,3 5,9 15,9 25,8 21,0 10 5 17 9 NNE 1018,8 20 0 0,0
10.07.2019 01:00:00 18,6 5,1 17,2 26,2 21,0 11 6 22 12 NNE 1018,6 20 0 0,0
10.07.2019 00:00:00 19,5 4,0 18,0 26,6 21,0 11 6 24 13 NNE 1018,4 20 0 0,0

tt = Température de l'air
td = dewpoint
tt 5cm = Température de l'air 5cm
tt -20cm = Température de l'air -20cm
tt -100cm = Température de l'air -100cm
ff = Vitesse du vent
fx = gusts
dd = Direction du vent
ppp = reduced air pressure
vv = visibility
sd = Ensoleillement
rr = Quantités de précipitations

stations d'obs. à proximité